[[{"header":{"parameterUnit":"m.s-1","parameterCategory":1,"la1":30.2991,"la2":30.254,"lo1":-89.0895,"lo2":-89.0444,"dy":0.0017,"dx":0.0017,"nx":28,"ny":28,"refTime":"2023-09-29T21:00:00:Z","depth":0,"parameterNumber":2,"parameterNumberName":"U-component_of_WINDS"},"data":[0,0,0,0,0,0,0,0,0,0,0,0,0,0,0,0,0,0,0,0,0,0,0,0,0,0,0,0,0,0,0,0,0,0,0,0,0,0,0,0,0,0,0,0,0,0,0,0,0,0,0,0,0,0,0,0,0,0,-2.5824,-2.5824,0,-2.5847,-2.5847,-2.5848,-2.5743,-2.574,-2.5737,-2.5734,-2.576,-2.5763,-2.5767,0,0,0,0,0,0,0,0,0,0,0,0,0,-2.5691,-2.5694,-2.5824,-2.5824,-2.5824,-2.5847,-2.5847,-2.5848,-2.5743,-2.5739,-2.5736,-2.5732,-2.5759,-2.5763,-2.5767,0,0,0,0,0,0,0,0,0,0,0,0,0,-2.5735,-2.5695,-2.5824,-2.5775,-2.5771,-2.5847,-2.5847,-2.5848,-2.5744,-2.5739,-2.5735,-2.573,-2.5757,-2.5762,-2.5768,-2.5893,0,0,-2.5784,-2.5786,0,0,0,0,0,0,0,0,-2.5733,-2.574,-2.5782,-2.5778,-2.5774,-2.5787,-2.581,-2.5863,-2.5745,-2.5754,-2.5734,-2.5728,-2.5773,-2.5777,-2.5791,-2.5894,-2.5895,-2.5784,-2.5788,-2.579,-2.5791,0,0,0,0,0,0,0,-2.573,-2.5738,-2.5833,-2.5783,-2.5778,-2.5752,-2.5754,-2.582,-2.5789,-2.5753,-2.5746,-2.575,-2.577,-2.5786,-2.5791,-2.5895,-2.5784,-2.5789,-2.5792,-2.5794,-2.6103,-2.6108,0,0,0,0,0,0,-2.5733,-2.5736,-2.5832,-2.5834,-2.5741,-2.5759,-2.576,-2.5788,-2.5788,-2.5784,-2.5754,-2.5745,-2.5779,-2.5785,-2.5791,-2.5939,-2.579,-2.5795,-2.5798,-2.6098,-2.6104,-2.611,0,0,0,0,0,0,-2.573,-2.5742,-2.5831,-2.5783,-2.5792,-2.5766,-2.5798,-2.5791,-2.5807,-2.5788,-2.5783,-2.5776,-2.5776,-2.5784,-2.5868,-2.5938,-2.5797,-2.5802,-2.6092,-2.61,-2.6107,-2.6234,0,0,0,0,0,0,-2.5727,-2.5742,-2.5789,-2.5785,-2.5795,-2.5908,-2.5802,-2.5794,-2.5816,-2.5805,-2.5808,-2.5804,-2.5773,-2.5861,-2.5874,-2.5943,-2.5806,-2.6086,-2.6096,-2.6104,-2.6224,-2.6245,-2.6264,0,0,0,0,0,-2.5723,-2.5824,-2.5792,-2.5804,-2.5853,-2.5912,-2.5918,-2.588,-2.5822,-2.5869,-2.5858,-2.5804,-2.5928,-2.5871,-2.5884,-2.5956,-2.6081,-2.6093,-2.6104,-2.6215,-2.6241,-2.6263,0,0,0,0,0,0,-2.5838,-2.5823,-2.5787,-2.589,-2.5903,-2.5894,-2.5953,-2.5909,-2.5939,-2.5927,-2.5879,-2.588,-2.5974,-2.5973,-2.5909,-2.6077,-2.5995,-2.6009,-2.6075,-2.61,-2.6119,-2.6118,-2.5811,0,0,0,0,0,-2.5875,-2.5923,-2.5908,-2.6,-2.6009,-2.598,-2.6004,-2.5973,-2.5985,-2.599,-2.5984,-2.5999,-2.6041,-2.607,-2.6108,-2.6223,-2.6223,-2.6279,-2.6299,-2.6315,-2.6329,-2.6391,-2.6416,-2.6146,-2.6146,-2.6146,0,0,-2.5953,-2.5951,-2.5984,-2.6024,-2.603,-2.6082,-2.5985,-2.6044,-2.6082,-2.5999,-2.6079,-2.6075,-2.6088,-2.6189,-2.6233,-2.6191,-2.6403,-2.633,-2.6343,-2.6348,-2.6405,-2.6431,-2.6453,-2.6154,-2.6153,-2.6151,0,0,-2.6122,-2.6125,-2.6202,-2.6211,-2.6222,-2.6202,-2.6221,-2.6218,-2.6213,-2.6291,-2.623,-2.6275,-2.6349,-2.6361,-2.6376,-2.655,-2.6502,-2.6563,-2.6668,-2.6729,-2.675,-2.6769,-2.6832,-2.6855,-2.6577,-2.6577,-2.6577,0,-2.6218,-2.6293,-2.6248,-2.6311,-2.6331,-2.6257,-2.6336,-2.6347,-2.637,-2.6386,-2.6338,-2.6429,-2.6432,-2.6535,-2.6578,-2.6592,-2.6613,-2.6564,-2.6751,-2.6769,-2.6786,-2.6845,-2.6869,-2.6584,-2.6584,-2.6583,-2.6582,0,-2.6411,-2.6464,-2.6526,-2.6549,-2.6575,-2.6647,-2.6613,-2.6645,-2.6612,-2.6598,-2.668,-2.6681,-2.6718,-2.6739,-2.6708,-2.6839,-2.6812,-2.6759,-2.6675,-2.682,-2.6875,-2.6898,-2.6595,-2.6592,-2.659,-2.6588,0,0,-2.6654,-2.6652,-2.6676,-2.6686,-2.6692,-2.6733,-2.68,-2.6836,-2.6865,-2.6883,-2.694,-2.7004,-2.6954,-2.6972,-2.6941,-2.6994,-2.7133,-2.6934,-2.6933,-2.6972,-2.7278,-2.732,-2.7347,-2.71,-2.7105,-2.7108,-2.7278,0,-2.6821,-2.6936,-2.6898,-2.7015,-2.7064,-2.6995,-2.7054,-2.7065,-2.7053,-2.7093,-2.708,-2.7127,-2.7057,-2.7067,-2.7117,-2.7106,-2.7194,-2.7093,-2.7154,-2.7157,-2.7155,-2.7376,-2.742,-2.758,-2.7299,-2.7303,-2.7305,0,-2.7031,-2.7057,-2.718,-2.7178,-2.7197,-2.7251,-2.7281,-2.732,-2.7331,-2.7318,-2.7339,-2.7296,-2.7364,-2.7279,-2.7371,-2.7303,-2.7326,-2.7324,-2.7329,-2.7335,-2.7241,-2.7389,-2.763,-2.7655,-2.7339,-2.7336,-2.7334,0,-2.7198,-2.7264,-2.7346,-2.7356,-2.7356,-2.7396,-2.7398,-2.7404,-2.7428,-2.7454,-2.7469,-2.7503,-2.7523,-2.755,-2.7519,-2.7459,-2.7617,-2.7529,-2.761,-2.7611,-2.7647,-2.7646,-2.7897,-2.7659,-2.7659,-2.7659,-2.7658,0,-2.7389,-2.7467,-2.7421,-2.7472,-2.7557,-2.7512,-2.7598,-2.7592,-2.7599,-2.7648,-2.7589,-2.7636,-2.7591,-2.7634,-2.761,-2.7691,-2.77,-2.7693,-2.7686,-2.7699,-2.77,-2.7714,-2.7703,-2.7665,-2.7664,-2.7662,-2.7661,0,-2.7591,-2.7563,-2.7648,-2.7641,-2.764,-2.7704,-2.7698,-2.7745,-2.7728,-2.7791,-2.7803,-2.7778,-2.7826,-2.7797,-2.7846,-2.7829,-2.7936,-2.7912,-2.7932,-2.7927,-2.801,-2.8003,-2.8281,-2.8315,-2.8054,-2.8056,-2.8058,0,-2.7716,-2.7774,-2.7773,-2.7801,-2.7807,-2.7853,-2.7877,-2.7835,-2.7863,-2.788,-2.7925,-2.7968,-2.8,-2.808,-2.8067,-2.8104,-2.8082,-2.8177,-2.8088,-2.81,-2.8086,-2.8083,-2.809,-2.8196,-2.8199,-2.8201,-2.8203,0,-2.7941,-2.7924,-2.796,-2.7993,-2.8023,-2.8046,-2.8065,-2.8092,-2.805,-2.8084,-2.8132,-2.8157,-2.8207,-2.8251,-2.8282,-2.8284,-2.8238,-2.8231,-2.8252,-2.8267,-2.8277,-2.8275,-2.7983,-2.8226,-2.8223,-2.8222,-2.822,-2.822,-2.8109,-2.8158,-2.8164,-2.8207,-2.8217,-2.8236,-2.828,-2.8268,-2.8308,-2.8345,-2.8317,-2.8375,-2.8385,-2.8422,-2.8431,-2.8475,-2.8437,-2.8467,-2.8475,-2.8484,-2.8496,-2.8269,-2.8481,-2.848,-2.848,-2.8479,-2.8478,0,-2.8332,-2.8332,-2.8372,-2.84,-2.8434,-2.8386,-2.8404,-2.8436,-2.8487,-2.85,-2.8533,-2.8588,-2.8631,-2.862,-2.8658,-2.8696,-2.8676,-2.8708,-2.8706,-2.8707,-2.8527,-2.8506,-2.8724,-2.8724,-2.8724,-2.8724,-2.8724,-2.8724,-2.8452,-2.8532,-2.8517,-2.8602,-2.8601,-2.8657,-2.8672,-2.8689,-2.8699,-2.8764,-2.8798,-2.8791,-2.8795,-2.8833,-2.8869,-2.8865,-2.8883,-2.8923,-2.8912,-2.8744,-2.872,-2.8697,-2.8677,-2.8927,-2.8927,-2.9088,-2.9089,-2.9091]},{"header":{"parameterUnit":"m.s-1","parameterCategory":1,"la1":30.2991,"la2":30.254,"lo1":-89.0895,"lo2":-89.0444,"dy":0.0017,"dx":0.0017,"nx":28,"ny":28,"refTime":"2023-09-29T21:00:00:Z","depth":0,"parameterNumber":3,"parameterNumberName":"V-component_of_WINDS"},"data":[0,0,0,0,0,0,0,0,0,0,0,0,0,0,0,0,0,0,0,0,0,0,0,0,0,0,0,0,0,0,0,0,0,0,0,0,0,0,0,0,0,0,0,0,0,0,0,0,0,0,0,0,0,0,0,0,0,0,2.179,2.1789,0,2.1752,2.1752,2.1752,2.1736,2.1737,2.1737,2.1737,2.1693,2.1692,2.1691,0,0,0,0,0,0,0,0,0,0,0,0,0,2.1844,2.1843,2.179,2.1789,2.1789,2.1753,2.1752,2.1752,2.1736,2.1737,2.1737,2.1737,2.1694,2.1692,2.1691,0,0,0,0,0,0,0,0,0,0,0,0,0,2.1815,2.1842,2.179,2.1777,2.1776,2.1753,2.1752,2.1751,2.1736,2.1737,2.1737,2.1737,2.1694,2.1692,2.169,2.1676,0,0,2.1685,2.1684,0,0,0,0,0,0,0,0,2.1816,2.1813,2.1779,2.1778,2.1776,2.1749,2.1755,2.1726,2.1736,2.1751,2.1737,2.1737,2.1711,2.1708,2.1701,2.1674,2.1672,2.1684,2.1683,2.1682,2.1682,0,0,0,0,0,0,0,2.1818,2.1814,2.1775,2.1779,2.1777,2.1772,2.1768,2.1749,2.1731,2.175,2.1749,2.1745,2.171,2.1702,2.1699,2.1671,2.1684,2.1683,2.1682,2.1681,2.1631,2.1631,0,0,0,0,0,0,2.1823,2.1816,2.1776,2.1774,2.1797,2.1771,2.1766,2.1758,2.1731,2.1727,2.1745,2.1744,2.1706,2.1702,2.1698,2.1679,2.1682,2.1681,2.168,2.1631,2.1631,2.1631,0,0,0,0,0,0,2.1824,2.182,2.1777,2.1795,2.1789,2.177,2.176,2.1757,2.1749,2.1727,2.1723,2.174,2.1706,2.17,2.1682,2.1678,2.168,2.1678,2.1631,2.1631,2.1631,2.1642,0,0,0,0,0,0,2.1826,2.182,2.1815,2.1795,2.1788,2.1763,2.176,2.1756,2.1746,2.1745,2.1722,2.1718,2.1705,2.1685,2.168,2.1675,2.1677,2.1632,2.1631,2.1631,2.1642,2.1642,2.1642,0,0,0,0,0,2.1828,2.1819,2.1815,2.181,2.1782,2.1763,2.1759,2.1746,2.1746,2.174,2.1727,2.1719,2.1679,2.1683,2.1677,2.1672,2.1632,2.1631,2.1631,2.1642,2.1642,2.1642,0,0,0,0,0,0,2.1837,2.1816,2.1811,2.1796,2.1782,2.1761,2.1753,2.1747,2.1731,2.1731,2.1714,2.1709,2.1692,2.168,2.1685,2.1657,2.1655,2.1653,2.1665,2.1665,2.1665,2.1668,2.1675,0,0,0,0,0,2.1838,2.1826,2.1807,2.1795,2.1788,2.1772,2.1764,2.1755,2.1739,2.1733,2.1717,2.1701,2.1685,2.1674,2.1658,2.1641,2.1635,2.1634,2.1634,2.1634,2.1633,2.1623,2.1622,2.1629,2.1629,2.1629,0,0,2.1838,2.1825,2.1818,2.1796,2.1785,2.1772,2.1767,2.1753,2.1743,2.173,2.1712,2.17,2.1681,2.1663,2.1654,2.1652,2.163,2.1634,2.1634,2.1632,2.1622,2.1622,2.1621,2.1629,2.1629,2.1629,0,0,2.1832,2.1821,2.181,2.1799,2.1782,2.1771,2.1769,2.1749,2.1742,2.1724,2.1714,2.1701,2.1674,2.166,2.165,2.1641,2.1633,2.1636,2.1637,2.1627,2.1627,2.1626,2.1622,2.1621,2.1635,2.1635,2.1635,0,2.1833,2.1815,2.1804,2.1792,2.1782,2.1772,2.176,2.175,2.1727,2.1721,2.172,2.1686,2.1672,2.1651,2.1649,2.1641,2.1637,2.1638,2.1628,2.1627,2.1626,2.1623,2.1622,2.1635,2.1635,2.1635,2.1635,0,2.1818,2.1806,2.1799,2.178,2.177,2.1758,2.1744,2.1735,2.1728,2.1717,2.1699,2.1683,2.1663,2.1658,2.165,2.1636,2.1635,2.1631,2.1629,2.1626,2.1623,2.1621,2.1636,2.1636,2.1636,2.1636,0,0,2.1815,2.1793,2.179,2.1782,2.1763,2.1752,2.174,2.1723,2.1715,2.1701,2.1689,2.1667,2.1664,2.1652,2.1643,2.1635,2.1629,2.1632,2.1631,2.1631,2.1612,2.1615,2.1614,2.1624,2.1623,2.1623,2.1614,0,2.1806,2.1785,2.1775,2.1757,2.1745,2.1737,2.1725,2.1712,2.1702,2.169,2.1678,2.1663,2.166,2.1653,2.1645,2.1631,2.1624,2.1632,2.1611,2.1611,2.1616,2.1612,2.1614,2.1606,2.1612,2.1612,2.1612,0,2.1792,2.178,2.1762,2.1746,2.174,2.1731,2.1715,2.1704,2.1689,2.1682,2.167,2.1662,2.1647,2.1647,2.1626,2.1631,2.1622,2.1615,2.1614,2.1611,2.1611,2.1608,2.1603,2.1601,2.1609,2.161,2.161,0,2.1792,2.177,2.1757,2.175,2.1731,2.1725,2.1716,2.1701,2.1692,2.1678,2.1672,2.1656,2.1647,2.1634,2.1621,2.1622,2.1601,2.16,2.1594,2.1594,2.1589,2.1589,2.1582,2.1585,2.1585,2.1585,2.1585,0,2.1782,2.1771,2.1757,2.1748,2.1736,2.1725,2.1712,2.1703,2.169,2.1679,2.167,2.1659,2.1643,2.163,2.162,2.1604,2.16,2.1593,2.159,2.1594,2.1594,2.1587,2.1587,2.1584,2.1584,2.1585,2.1585,0,2.1778,2.1769,2.1753,2.1738,2.1733,2.1725,2.1711,2.1702,2.1692,2.1678,2.1674,2.1659,2.1643,2.163,2.1608,2.1601,2.1585,2.1582,2.1591,2.1589,2.1584,2.1585,2.1571,2.1569,2.1574,2.1574,2.1574,0,2.1772,2.1764,2.1748,2.1741,2.1734,2.1722,2.1713,2.1703,2.1694,2.1677,2.167,2.1654,2.1641,2.1617,2.1602,2.1586,2.1582,2.1579,2.158,2.1584,2.1582,2.1582,2.1581,2.1578,2.1578,2.1578,2.1578,0,2.1763,2.1759,2.1748,2.1735,2.1726,2.1715,2.1704,2.1698,2.1685,2.1675,2.1661,2.1651,2.1631,2.1615,2.1598,2.1588,2.158,2.1579,2.1577,2.1579,2.1585,2.1582,2.159,2.1579,2.1579,2.1579,2.1579,2.1579,2.1757,2.175,2.1738,2.1726,2.1717,2.1708,2.1699,2.1689,2.1678,2.1662,2.1656,2.1641,2.1626,2.1603,2.1593,2.158,2.1579,2.1576,2.1575,2.1574,2.1574,2.1588,2.1577,2.1577,2.1577,2.1577,2.1577,0,2.1747,2.174,2.1729,2.1715,2.1706,2.1703,2.169,2.1682,2.167,2.1658,2.1646,2.1629,2.1615,2.1601,2.1585,2.1577,2.1574,2.1574,2.1573,2.1571,2.1577,2.158,2.1577,2.1577,2.1577,2.1577,2.1577,2.1577,2.174,2.1728,2.1723,2.1706,2.1698,2.1685,2.1678,2.1669,2.166,2.1642,2.1631,2.1623,2.161,2.1593,2.158,2.1576,2.157,2.1571,2.1566,2.1571,2.1571,2.1571,2.1574,2.157,2.157,2.1561,2.1561,2.1561]}]]